HULIANWANG DIGUI-116

导读 | 豆包AI

HULIANWANG DIGUI-116是中国于北京时间2025年12月8日发射的卫星,归属低轨互联卫星星座体系,是中国低轨卫星互联网建设进程中的一颗组网卫星,承担着拓展星座网络覆盖范围、验证相关通信技术指标的任务,服务于全球宽带互联网接入等应用场景,助力中国天地一体化信息网络的构建。

Basic Information
目录编号:
66955
目录名称:
HULIANWANG DIGUI-116
国际标识:
2025-287C
轨道中心:
EARTH
卫星名称:
HULIANWANG DIGUI-116
卫星全名:
HULIANWANG DIGUI-116
卫星状态:
在轨 (已飞行117 天)
发射日期:
2025-12-08 UTC
国别 :
中国 (CN)
星等 :
--
Orbit Information
数据来源 国际轨道数据 AOE轨道数据
星历时间 2026-04-04T02:53:49+0800
8小时前
查看轨道信息
2026-04-02T10:00:00+0800
2天前
查看轨道信息
半长轴 7546.027km 7546.032km
偏心率 0.0001767 0.0001663
轨道倾角 86.487° 86.487°
近地点辐角 71.617° 67.618°
升交点赤经 307.463° 308.040°
平近点角 288.516° 92.425°
近地点 1166.556km 1166.64km
远地点 1169.224km 1169.15km
周期 108.727分钟 108.727分钟
每日圈数 13.244186 13.244172
Detailed Information
使用方式:
暂无
2D Orbit Map
3D Orbit Map
Orbit Altitude Analysis Chart
Orbit Inclination Analysis Chart
Orbit Comprehensive Analysis Chart
View Comprehensive Chart